Probability
0 3 3 3 0 0 0 0 0 0 0 0 0 0 0 0 3 10 6 10 23 29 26 23 26 32 35 52 65 68 65 77 84 77 81 74 74 71 74 71 65 58 55 58
0 3 0 0 0 0 0 0 0 0 0 0 0 0 0 3 6 6 13 16 16 23 26 29 26 26 32 55 61 74 71 74 81 87 84 81 81 68 74 74 74 61 58 55
0 0 0 0 0 0 0 0 0 0 0 0 0 0 3 3 3 10 10 16 13 16 23 29 32 29 32 48 65 58 77 81 81 84 77 84 84 87 77 77 74 61 58 52
0 0 0 0 0 0 0 0 0 0 0 0 0 0 3 3 10 6 10 13 13 19 16 29 29 39 35 39 52 71 81 87 84 81 87 87 77 81 77 81 77 68 61 58
0 0 0 0 0 0 0 0 0 0 0 0 0 0 3 10 10 13 6 13 13 13 16 19 19 29 29 29 29 68 77 81 84 84 84 84 87 90 87 90 77 74 71 65
0 0 0 0 0 0 0 0 0 0 0 0 0 0 3 10 10 13 6 10 10 16 16 19 23 26 32 32 35 61 74 77 84 84 84 81 81 84 84 84 84 77 71 68
0 0 0 0 0 0 0 0 0 0 0 0 0 0 6 10 10 13 10 10 10 10 10 16 19 29 42 42 42 58 74 81 81 77 77 77 81 81 77 74 74 71 61 65
0 0 0 0 0 0 0 0 0 0 0 0 0 0 3 3 3 6 10 10 6 10 13 16 19 29 35 45 58 58 71 74 77 77 81 77 81 81 81 77 74 71 71 58
0 0 0 0 0 0 0 0 0 0 0 0 0 3 6 3 6 3 3 10 6 6 10 13 16 19 29 42 48 58 61 74 74 77 81 74 77 77 77 74 74 71 71 61
0 0 0 0 0 0 0 0 0 0 6 0 0 3 3 6 10 6 6 10 13 10 13 13 16 19 35 35 58 61 65 68 65 65 71 68 77 77 74 77 77 71 68 61
0 0 0 0 0 0 0 0 0 0 3 0 0 0 0 10 16 10 6 13 13 13 16 23 23 29 32 32 39 48 58 65 65 65 58 68 68 74 74 71 68 65 68 58
0 0 0 0 0 0 0 0 0 0 3 3 0 3 3 3 6 10 6 10 13 19 16 23 26 26 29 32 42 45 48 52 61 65 61 58 68 61 61 58 55 55 55 52
0 0 0 0 0 0 0 0 0 0 3 0 0 3 3 6 6 0 6 13 16 29 29 26 29 29 29 32 35 35 45 48 58 55 58 61 61 55 58 55 48 45 48 48
0 0 0 0 0 0 0 0 0 0 0 0 0 0 6 6 6 10 13 16 23 29 39 39 45 48 45 55 58 45 48 48 52 58 52 45 48 52 55 52 45 48 48 45
0 0 0 0 0 0 0 0 0 0 0 0 0 0 6 6 3 13 19 26 23 26 32 42 52 58 58 55 55 55 48 48 55 52 48 48 52 52 48 45 42 42 39 32
0 0 0 0 0 0 0 0 0 0 0 0 0 0 3 10 6 16 23 19 29 35 29 39 52 55 52 55 52 52 52 52 52 45 45 52 48 48 48 42 42 39 42 35
0 0 0 0 0 0 0 0 0 0 0 0 0 0 6 10 10 13 13 23 26 29 39 42 55 61 55 52 58 52 58 55 52 48 52 52 45 45 39 35 42 39 39 39
0 10 3 0 0 0 3 3 0 0 3 0 3 3 10 13 19 13 13 26 29 32 48 55 48 45 55 55 61 61 52 52 48 48 48 45 45 42 35 39 39 39 39 42
0 10 0 0 0 3 3 3 3 0 3 3 3 3 10 19 23 16 16 19 29 42 55 55 55 45 61 61 58 55 52 45 42 42 42 42 39 39 39 42 39 45 42 42
0 3 3 3 0 0 3 3 0 0 3 3 3 6 10 13 13 26 45 39 42 45 55 52 52 45 52 58 55 52 35 39 39 29 32 35 35 32 32 39 45 42 39 35
3 6 3 3 0 0 0 0 3 3 6 3 3 6 19 29 32 39 35 35 35 32 39 42 42 42 48 52 52 48 45 45 42 32 32 35 35 32 32 32 39 35 29 29
0 3 3 0 0 0 0 0 0 19 29 3 13 16 23 35 39 32 32 32 32 29 39 39 45 45 48 48 52 52 45 45 39 32 35 35 32 32 29 32 32 32 29 29
0 3 0 6 6 16 3 10 13 16 13 6 6 10 19 26 32 35 29 35 32 35 39 39 39 42 45 48 42 48 48 45 42 42 39 29 32 29 29 32 26 29 35 19
3 3 6 23 13 6 6 6 6 6 6 3 3 13 16 23 26 29 29 29 26 26 32 32 32 39 45 39 39 45 45 45 45 42 42 32 32 26 32 32 23 23 19 16
10 10 13 23 16 6 6 6 6 6 6 6 13 16 13 19 19 29 32 26 29 29 29 39 42 48 45 45 45 42 42 45 42 32 35 26 23 26 29 26 19 23 19 13
0 3 16 10 19 10 13 13 6 3 3 13 10 16 19 16 23 29 29 32 29 29 29 35 39 35 42 45 45 35 39 39 42 35 32 19 23 26 23 16 13 6 3 6
Height
5893 5895 5896 5898 5899 5900 5900 5901 5901 5902 5902 5901 5900 5899 5898 5897 5895 5895 5894 5893 5893 5892 5891 5889 5888 5887 5887 5886 5885 5885 5884 5883 5882 5880 5879 5878 5876 5875 5874 5873 5872 5871 5869 5868
5891 5893 5895 5896 5897 5897 5898 5899 5900 5901 5901 5900 5898 5898 5897 5896 5895 5894 5893 5892 5892 5891 5890 5888 5887 5886 5885 5885 5884 5883 5882 5881 5880 5879 5878 5877 5875 5874 5873 5872 5870 5869 5868 5866
5889 5893 5893 5894 5895 5896 5897 5898 5899 5899 5899 5898 5897 5896 5896 5895 5894 5893 5892 5891 5890 5889 5888 5887 5886 5885 5884 5883 5883 5882 5881 5880 5879 5878 5876 5875 5874 5872 5871 5870 5868 5867 5866 5865
5887 5890 5891 5891 5893 5894 5895 5896 5896 5897 5896 5895 5896 5895 5895 5893 5893 5892 5891 5890 5889 5887 5887 5885 5884 5883 5883 5882 5881 5880 5879 5878 5877 5876 5874 5873 5872 5871 5869 5868 5866 5865 5863 5862
5884 5886 5887 5888 5890 5891 5892 5893 5893 5894 5894 5893 5894 5893 5893 5891 5890 5890 5889 5888 5887 5885 5885 5883 5882 5881 5880 5880 5879 5878 5877 5876 5875 5873 5872 5871 5870 5868 5867 5866 5864 5863 5861 5860
5880 5882 5884 5885 5887 5888 5889 5890 5891 5891 5892 5891 5892 5892 5891 5889 5888 5888 5887 5886 5884 5883 5882 5881 5880 5878 5877 5877 5876 5876 5874 5873 5872 5871 5870 5869 5867 5866 5865 5863 5862 5861 5859 5858
5877 5879 5881 5882 5884 5886 5887 5888 5888 5888 5888 5888 5889 5889 5889 5887 5886 5885 5884 5883 5881 5881 5880 5878 5877 5877 5876 5875 5874 5872 5871 5870 5869 5868 5867 5866 5865 5864 5862 5861 5860 5858 5856 5855
5874 5877 5879 5879 5881 5882 5883 5885 5886 5887 5887 5887 5887 5886 5885 5884 5883 5882 5881 5880 5879 5878 5877 5876 5874 5873 5872 5872 5871 5870 5868 5867 5866 5865 5864 5863 5862 5861 5860 5858 5857 5855 5854 5853
5870 5872 5874 5876 5877 5879 5880 5881 5883 5884 5884 5884 5884 5883 5881 5880 5879 5879 5878 5877 5876 5875 5874 5873 5870 5870 5869 5868 5868 5867 5865 5864 5863 5862 5861 5860 5859 5858 5857 5855 5854 5853 5851 5850
5865 5867 5870 5872 5873 5874 5876 5877 5879 5880 5880 5880 5880 5880 5879 5877 5876 5876 5875 5874 5873 5872 5871 5870 5868 5867 5866 5865 5864 5863 5862 5861 5860 5859 5858 5857 5856 5854 5853 5852 5851 5850 5848 5847
5860 5862 5865 5867 5868 5870 5872 5874 5874 5875 5876 5876 5876 5878 5875 5874 5873 5872 5871 5870 5870 5869 5868 5867 5865 5864 5863 5861 5859 5858 5857 5857 5856 5855 5854 5853 5852 5851 5850 5848 5847 5846 5844 5843
5855 5857 5859 5862 5864 5865 5867 5868 5870 5871 5870 5870 5870 5873 5870 5871 5870 5868 5867 5867 5866 5865 5864 5863 5861 5860 5859 5857 5855 5854 5853 5853 5852 5851 5850 5849 5848 5847 5846 5844 5843 5842 5840 5839
5849 5851 5852 5855 5859 5860 5861 5862 5863 5864 5865 5865 5865 5867 5866 5866 5865 5863 5862 5863 5862 5861 5860 5859 5856 5855 5854 5853 5851 5850 5849 5848 5847 5846 5844 5844 5843 5842 5841 5840 5839 5837 5836 5834
5841 5843 5846 5849 5851 5853 5853 5855 5856 5858 5859 5860 5860 5860 5861 5860 5858 5859 5858 5857 5857 5856 5855 5853 5852 5850 5849 5848 5847 5845 5844 5844 5843 5841 5840 5839 5838 5838 5837 5835 5834 5833 5831 5830
5834 5836 5838 5840 5844 5845 5847 5848 5850 5851 5852 5854 5854 5854 5854 5853 5853 5853 5852 5851 5851 5850 5849 5848 5847 5846 5845 5844 5843 5841 5840 5839 5838 5837 5835 5835 5833 5833 5831 5830 5829 5828 5826 5825
5827 5829 5831 5833 5835 5837 5839 5842 5844 5845 5846 5847 5847 5848 5848 5848 5847 5847 5846 5845 5845 5844 5843 5842 5841 5840 5840 5839 5838 5836 5835 5834 5833 5832 5831 5830 5828 5827 5826 5825 5824 5822 5821 5820
5819 5821 5823 5825 5827 5827 5830 5834 5836 5837 5839 5840 5840 5842 5840 5840 5840 5840 5839 5839 5839 5838 5836 5835 5835 5834 5834 5833 5832 5832 5830 5829 5828 5827 5826 5825 5823 5822 5820 5819 5818 5817 5815 5814
5812 5813 5815 5817 5819 5819 5825 5826 5827 5829 5830 5831 5831 5832 5832 5832 5832 5832 5832 5832 5831 5830 5829 5829 5828 5828 5827 5827 5827 5826 5825 5824 5823 5822 5821 5819 5818 5816 5815 5814 5812 5811 5809 5808
5805 5806 5807 5809 5810 5812 5816 5818 5819 5820 5821 5823 5823 5824 5825 5825 5825 5825 5824 5824 5823 5822 5822 5822 5822 5822 5822 5821 5821 5820 5819 5818 5817 5816 5815 5814 5812 5811 5809 5808 5807 5805 5804 5802
5797 5798 5800 5801 5803 5804 5809 5810 5810 5812 5813 5814 5815 5816 5817 5816 5817 5816 5816 5817 5817 5817 5816 5816 5816 5816 5815 5815 5815 5814 5813 5812 5811 5810 5809 5808 5806 5805 5804 5802 5801 5799 5797 5795
5788 5790 5792 5794 5795 5797 5800 5801 5804 5806 5806 5807 5807 5808 5809 5809 5809 5810 5810 5810 5810 5811 5810 5810 5810 5809 5809 5808 5808 5807 5806 5805 5805 5803 5802 5801 5800 5798 5797 5796 5794 5793 5791 5789
5780 5782 5784 5786 5788 5792 5792 5794 5796 5797 5798 5798 5799 5801 5801 5801 5801 5803 5803 5803 5803 5803 5804 5803 5803 5802 5802 5801 5800 5800 5799 5798 5797 5796 5795 5794 5793 5791 5790 5789 5787 5786 5784 5782
5773 5776 5776 5778 5781 5782 5784 5785 5786 5788 5789 5790 5792 5793 5794 5793 5793 5795 5796 5796 5796 5796 5796 5796 5795 5795 5794 5793 5793 5792 5791 5791 5789 5789 5788 5787 5786 5784 5783 5781 5780 5778 5777 5775
5766 5767 5768 5770 5772 5774 5775 5776 5777 5779 5781 5782 5784 5784 5785 5785 5786 5786 5787 5788 5788 5788 5788 5787 5787 5786 5786 5785 5785 5784 5783 5782 5781 5781 5780 5779 5778 5777 5775 5774 5772 5771 5769 5767
5758 5759 5760 5762 5765 5765 5766 5768 5769 5771 5773 5775 5775 5776 5776 5776 5776 5777 5778 5779 5778 5778 5779 5779 5778 5778 5777 5777 5777 5776 5775 5774 5773 5772 5771 5770 5769 5768 5767 5765 5764 5762 5761 5759
5749 5751 5752 5754 5756 5757 5759 5759 5761 5763 5765 5766 5767 5768 5767 5767 5768 5769 5770 5770 5770 5770 5770 5769 5769 5769 5768 5768 5768 5767 5766 5765 5764 5764 5763 5761 5760 5759 5758 5756 5755 5753 5752 5750
Wind_Speed
9 9 8 7 8 8 8 7 7 8 10 9 8 9 10 10 10 9 9 9 9 10 10 11 11 10 10 10 10 10 10 10 10 11 11 11 11 10 10 10 11 11 12 11
10 10 9 10 10 8 7 8 8 8 10 10 10 8 10 11 11 11 10 10 10 11 11 11 11 11 11 11 10 11 11 11 12 12 12 12 11 12 11 12 12 12 12 12
12 10 11 12 12 10 11 9 9 8 10 10 11 9 11 12 12 13 12 12 12 12 12 11 11 11 12 12 12 12 12 13 13 13 13 13 12 12 12 13 13 13 13 12
13 12 13 14 13 12 12 10 11 11 12 12 11 12 12 13 14 13 13 14 14 13 12 12 12 12 12 12 12 12 13 13 13 14 13 13 13 13 13 13 14 14 13 13
15 15 15 15 14 14 12 11 12 12 13 13 11 11 11 13 14 13 14 14 14 14 13 12 12 13 13 13 13 13 14 14 14 14 14 14 14 14 14 14 14 14 13 12
15 15 14 14 14 14 13 12 12 11 12 13 12 12 13 13 14 15 14 14 14 14 15 14 13 14 14 14 14 14 15 15 15 14 14 14 14 14 15 15 15 15 14 13
16 15 15 14 14 14 14 14 14 14 15 14 12 14 14 13 15 15 16 15 14 15 15 14 15 15 15 15 14 14 15 15 15 15 15 15 15 15 15 15 15 15 14 13
17 16 16 16 16 16 15 15 14 15 15 14 13 15 14 14 16 16 17 17 15 14 15 15 15 16 16 15 15 15 15 15 15 15 15 15 15 16 16 16 15 15 15 14
18 18 17 18 17 17 17 17 15 16 16 16 15 15 16 15 17 18 17 17 15 14 15 16 16 16 17 17 16 16 16 15 15 15 15 15 15 16 16 15 15 15 15 15
20 20 19 19 19 18 18 17 16 17 18 17 16 16 18 18 17 18 18 17 16 15 16 16 16 16 17 17 17 17 17 16 16 16 16 16 16 16 17 16 16 16 17 17
20 20 18 19 20 19 18 19 18 18 19 18 17 17 17 17 19 20 18 18 16 16 17 17 18 18 18 18 18 18 18 17 17 17 17 18 18 17 18 18 18 18 18 18
22 21 22 21 21 21 21 20 19 21 22 21 21 21 18 18 17 19 19 19 18 17 16 18 20 20 20 20 19 18 18 18 17 18 19 19 19 19 19 19 20 20 19 19
23 23 24 22 21 21 22 22 22 21 21 22 23 22 19 19 19 18 18 19 19 20 19 19 20 21 21 21 21 20 20 19 18 19 19 20 20 20 20 21 21 21 21 21
25 25 25 24 23 22 22 23 23 22 23 24 25 23 21 21 21 22 21 21 21 22 21 21 21 21 20 21 22 22 21 20 20 20 20 20 21 21 21 22 22 23 23 22
27 27 26 26 25 24 24 23 23 25 25 25 25 24 23 21 22 23 23 23 23 24 23 23 24 24 22 22 22 22 22 21 21 21 21 21 21 22 22 22 23 23 23 23
27 28 27 27 27 27 27 25 24 25 25 25 26 26 24 24 24 23 23 24 24 24 24 24 24 25 24 23 22 22 22 21 22 22 22 22 23 23 23 23 23 23 24 24
29 29 29 28 27 27 28 27 27 27 27 27 27 27 26 25 25 23 24 24 24 24 25 25 25 25 23 23 23 22 23 22 22 23 23 23 22 22 22 23 23 23 24 24
27 28 28 27 27 28 26 25 26 28 27 27 28 28 28 25 25 25 25 25 25 25 24 24 25 25 23 23 23 23 23 22 22 22 23 23 23 23 23 23 23 24 24 24
25 26 26 27 27 28 26 25 25 27 29 27 27 27 27 28 27 25 24 23 24 23 23 24 24 23 23 23 24 24 24 23 23 23 23 24 24 23 23 23 23 23 24 24
26 27 27 27 28 29 28 26 25 25 27 27 27 27 27 27 25 26 25 24 24 25 24 24 23 23 24 24 24 24 25 25 24 24 24 24 24 23 23 24 24 24 25 25
26 27 28 28 28 29 28 26 25 26 27 26 28 28 27 28 27 27 27 26 26 26 25 25 25 24 25 26 25 25 25 26 26 25 25 25 25 25 24 25 25 25 26 26
26 26 28 28 29 30 28 27 27 27 28 29 29 29 28 29 30 30 29 27 26 26 25 25 26 26 27 27 28 27 27 27 26 26 26 26 26 26 26 26 26 26 27 27
25 26 27 28 30 29 27 28 30 29 29 30 30 29 30 30 30 31 30 29 29 28 27 27 28 28 29 29 29 28 28 27 27 28 28 28 28 28 28 27 27 28 28 28
27 28 28 29 29 30 31 31 30 30 30 31 31 30 30 32 32 31 31 31 30 29 29 29 30 30 30 30 30 29 27 27 28 29 29 29 29 29 29 28 28 29 28 28
27 28 29 30 30 31 32 31 30 29 30 31 32 32 32 32 32 31 31 31 31 30 31 31 31 31 30 30 30 30 30 28 29 30 30 31 30 30 30 30 30 29 29 30
26 27 29 29 30 32 32 31 31 32 31 31 32 32 31 30 30 30 31 31 31 31 32 31 30 31 31 31 31 31 31 29 30 31 31 31 31 31 32 32 31 31 31 31
Wind_Direction
225 229 233 242 239 236 239 249 259 269 283 284 285 294 301 310 311 309 308 311 317 322 326 324 322 320 319 320 316 318 323 326 329 331 328 325 322 320 317 316 315 312 309 308
234 238 236 241 248 243 242 248 259 269 280 288 286 294 301 304 305 304 306 305 309 313 316 318 316 316 317 317 315 317 320 321 323 323 322 322 321 321 320 318 315 314 310 306
244 243 249 252 251 246 249 252 261 270 276 279 285 289 296 292 298 304 305 306 306 305 308 310 312 312 314 315 315 317 319 320 320 320 318 317 318 320 319 317 317 316 316 311
244 238 241 243 246 245 250 252 259 265 271 275 281 285 286 290 292 299 304 306 306 306 304 302 303 307 309 311 313 313 314 315 316 316 314 314 315 316 317 316 316 318 316 314
244 242 241 244 243 246 245 249 255 259 267 262 274 279 278 283 284 289 296 303 306 305 302 295 294 297 300 305 310 311 311 312 313 314 313 313 313 315 317 317 316 318 315 311
244 244 243 247 245 246 246 245 252 259 270 266 270 272 276 269 277 283 287 290 297 298 300 297 294 294 295 298 303 306 308 308 309 309 311 311 312 313 315 315 313 315 313 306
248 246 246 249 246 248 247 248 256 265 267 270 272 269 276 275 279 284 287 289 288 294 296 295 293 293 296 297 301 305 307 306 305 305 306 308 309 311 312 312 311 312 312 305
242 241 241 244 245 245 241 245 252 264 271 276 274 272 269 277 282 281 285 289 287 289 290 290 289 290 294 296 297 300 302 303 303 303 305 306 307 310 312 312 311 310 312 310
241 239 235 240 247 246 245 242 247 259 263 267 267 271 272 275 280 282 284 288 291 290 289 289 288 291 297 298 297 297 299 300 299 299 302 305 306 307 310 311 310 310 309 312
242 243 235 239 246 245 243 246 246 252 259 260 265 270 279 282 286 287 289 289 289 287 289 290 294 297 299 297 296 296 297 297 297 296 297 300 303 304 305 304 305 306 306 306
243 249 241 238 242 247 240 242 245 250 253 258 264 265 273 278 280 284 286 291 294 291 291 290 290 293 297 297 293 293 295 295 294 293 293 295 298 299 299 299 301 302 302 302
244 247 247 245 245 247 245 242 245 251 255 255 255 261 265 276 275 279 283 285 286 287 286 284 286 290 293 295 296 294 295 293 292 291 290 292 295 295 295 297 298 299 299 298
244 247 248 247 243 243 245 242 241 245 253 257 261 264 270 270 273 276 279 282 281 282 283 282 283 285 290 291 294 295 296 294 292 289 289 290 291 292 292 294 295 296 296 296
240 242 245 246 244 244 245 246 245 244 247 254 259 264 265 267 273 277 276 277 277 276 278 283 284 285 286 289 292 293 294 292 292 291 289 288 289 290 290 291 293 294 296 297
243 244 245 247 245 242 245 246 247 247 247 252 258 262 263 263 269 273 273 274 276 277 278 281 282 283 286 289 290 290 291 291 292 293 293 291 292 290 290 291 292 293 295 296
244 247 247 249 247 246 247 247 249 252 249 251 256 261 265 263 265 267 269 271 273 276 278 280 281 281 283 286 286 288 288 289 291 294 295 293 293 292 290 292 293 293 294 296
245 248 249 251 251 250 248 247 248 250 250 252 253 256 258 258 261 263 265 268 270 274 277 278 281 282 280 282 283 284 286 288 290 292 294 295 293 292 293 292 293 293 295 295
248 250 252 252 252 252 251 249 248 250 250 250 254 255 255 258 262 261 262 266 269 270 273 277 279 279 280 280 282 283 284 286 289 291 293 294 295 294 293 293 293 294 295 296
243 247 249 251 254 256 252 248 249 251 252 251 252 256 257 258 260 263 265 269 269 268 271 276 277 278 280 280 280 281 282 284 287 289 290 292 294 294 293 293 294 295 296 297
240 244 248 250 253 253 252 250 253 251 250 250 251 254 256 260 260 261 266 269 270 269 275 276 278 278 278 279 280 280 282 284 286 288 289 290 292 292 292 293 294 296 298 298
243 243 246 249 250 253 252 251 254 251 252 252 252 255 257 259 260 262 265 268 269 270 275 276 277 276 277 279 280 280 281 283 284 285 287 288 290 291 291 293 294 295 297 298
243 246 246 248 249 249 250 250 251 252 252 253 254 256 258 262 262 262 265 268 271 271 274 276 275 274 274 278 280 280 280 281 282 284 285 286 288 289 290 292 293 294 295 296
245 246 249 249 250 250 250 250 250 252 253 253 256 257 257 260 262 263 265 267 270 271 273 273 274 275 274 276 279 280 280 280 281 283 285 286 287 288 289 291 293 294 295 296
245 246 246 246 249 249 250 250 248 250 254 255 255 257 258 261 263 265 266 269 271 272 272 273 274 275 274 275 278 279 279 280 281 282 283 284 286 287 289 291 292 293 294 295
244 247 249 247 248 248 250 251 250 252 255 258 257 258 260 263 264 265 267 269 269 270 271 272 272 274 275 276 278 279 280 279 280 282 284 285 285 286 288 289 291 291 292 294
243 247 250 252 250 249 250 252 252 255 256 257 257 257 261 264 266 267 267 269 270 272 273 272 272 273 274 275 277 279 280 279 280 282 284 285 285 286 287 288 288 289 291 293